365  
FPUS82 KCHS 250527  
OPUCHS  
 
TEST   
..KCHS/KSAV GATEWAY OBSERVATIONS
 
TEST  
NATIONAL WEATHER SERVICE CHARLESTON SC  
100 AM EDT SAT MAR 25 2017  
 
NOTE: "FAIR" INDICATES FEW OR NO CLOUDS BELOW 12,000 FEET WITH NO  
SIGNIFICANT WEATHER AND/OR OBSTRUCTIONS TO VISIBILITY.  
 
SCZ050-WAZ558-NCZ071-TXZ119-213-PAZ071-DCZ001-FLZ074-172-MI076-  
NYZ176-178-MAZ016-IL014-TNZ027-NJZ106-GAZ044-MD014-250600-  
   
..GATEWAY OBSERVATIONS FOR CHARLESTON INTERNATIONAL
 
 
 
CITY SKY/WX TMP DP RH WIND PRES REMARKS  
CHAS AIRPORT CLOUDY 57 53 86 CALM 30.37S  
SEATTLE MOCLDY 47 42 83 S10 29.99R  
CHARLOTTE MOCLDY 60 46 59 S9 30.35R  
DALLAS DFW PTCLDY 69 40 34 NW23 29.85R  
DALLAS LOVE CLEAR 70 40 33 NW18G26 29.85R  
PHILLADELPHIA CLOUDY 47 35 63 S5 30.16F  
WASH NATIONAL PTCLDY 57 47 69 S13 30.19S  
BALTIMORE MOCLDY 61 47 59 SW7 30.16S  
MIAMI PTCLDY 72 63 73 E15 30.22F  
DETROIT CLOUDY 47 39 74 NE9 30.09F  
NEWARK CLOUDY 48 33 56 SW5 30.11F  
LAGUARDIA MOCLDY 54 33 45 SW9 30.10F  
J F K MOCLDY 44 40 85 S9 30.13F  
BOSTON LOGAN MOCLDY 45 32 60 SW8 30.06F  
FT. LAUDERDALE PTCLDY 73 61 65 E16G25 30.22S  
CHICAGO O'HARE CLOUDY 43 36 76 NE14 30.04F  
CHICAGO MIDWAY CLOUDY 42 38 85 NE9G23 30.05F  
HOUSTON BUSH CLOUDY 69 65 86 S5 29.96S  
HOUSTON HOBBY TSTM 71 69 93 SW14 29.97F  
NASHVILLE MOCLDY 64 51 62 S8 30.13F  
ATLANTA CLOUDY 65 48 54 SE13G24 30.27F  
 

 
 
GAZ044-118-TXZ119-213-NCZ071-DCZ001-MDZ014-506-PAZ021-071-NJZ106-  
NYZ176-178-MAZ106-OHZ011-021-055-MIZ076-KYZ091-ILZ014-INZ047-  
MNZ060-ONZ431-250600-  
   
..GATEWAY OBSERVATIONS FOR SAVANNAH INTERNATIONAL
 
 
 
CITY SKY/WX TMP DP RH WIND PRES REMARKS  
SAVANNAH ARPT CLOUDY 59 54 83 CALM 30.35F  
ATLANTA CLOUDY 65 48 54 SE13G24 30.27F  
CHARLOTTE MOCLDY 60 46 59 S9 30.35R  
DALLAS DFW PTCLDY 69 40 34 NW23 29.85R  
HOUSTON BUSH CLOUDY 69 65 86 S5 29.96S  
WASH NATIONAL PTCLDY 57 47 69 S13 30.19S  
WASH DULLES MOCLDY 59 45 59 S7 30.18S  
BALTIMORE MOCLDY 61 47 59 SW7 30.16S  
PHILADELPHIA CLOUDY 47 35 63 S5 30.16F  
NEWARK CLOUDY 48 33 56 SW5 30.11F  
LAGUARDIA MOCLDY 54 33 45 SW9 30.10F  
J F K MOCLDY 44 40 85 S9 30.13F  
BOSTON MOCLDY 45 32 60 SW8 30.06F  
PITTSBURG CLOUDY 66 52 60 SW8 30.11S  
AKRON PTCLDY 63 51 65 SW10 30.10S  
CLEVELAND CLOUDY 66 51 58 SW9 30.09R  
CINCINNATI MOCLDY 63 52 67 S7 30.14S  
COLUMBUS CLOUDY 60 52 74 S8 30.13F  
DETROIT CLOUDY 47 39 74 NE9 30.09F  
CHICAGO O'HARE CLOUDY 43 36 76 NE14 30.04F  
MINNEAPOLIS CLOUDY 39 31 72 E10 30.17S WCI 32  
INDIANAPOLIS CLOUDY 64 52 64 S12 30.07S  
TORONTO CANADA LGT RAIN 39 37 93 NE9 30.13R WCI 33  
 

 
 
 
CLICK HERE TO GO TO PREVIOUS BULLETINS.

The Nexlab SC Page
The Nexlab GA Page Main Text Page